Time,TemperatureF,DewpointF,PressureIn,WindDirection,WindDirectionDegrees,WindSpeedMPH,WindSpeedGustMPH,Humidity,HourlyPrecipIn,Conditions,Clouds,dailyrainin,SolarRadiationWatts/m^2,SoftwareType,DateUTC
2013-03-14 00:00:00,45.2,-99.9,20.00,SE,125,9.0,17.0,255,0.00,,,0.00,0,Wunderground v.1.15,2013-03-14 07:00:00,
2013-03-14 00:10:00,45.1,-99.9,20.00,SE,131,7.0,17.0,255,0.00,,,0.00,0,Wunderground v.1.15,2013-03-14 07:10:00,
2013-03-14 00:20:00,44.8,-99.9,20.00,SE,124,8.0,17.0,255,0.00,,,0.00,0,Wunderground v.1.15,2013-03-14 07:20:00,
2013-03-14 00:30:00,44.9,-99.9,20.00,SE,128,13.0,17.0,255,0.00,,,0.00,0,Wunderground v.1.15,2013-03-14 07:30:00,
2013-03-14 00:35:00,44.8,-99.9,20.00,ESE,117,12.0,17.0,255,0.00,,,0.00,0,Wunderground v.1.15,2013-03-14 07:35:00,
2013-03-14 00:45:00,44.7,-99.9,20.00,ESE,122,9.0,17.0,255,0.00,,,0.00,0,Wunderground v.1.15,2013-03-14 07:45:00,
2013-03-14 00:55:00,44.3,-99.9,20.00,SE,126,6.0,17.0,255,0.00,,,0.00,0,Wunderground v.1.15,2013-03-14 07:55:00,
2013-03-14 01:05:00,44.2,-99.9,20.00,SE,137,7.0,17.0,255,0.00,,,0.00,0,Wunderground v.1.15,2013-03-14 08:05:00,
2013-03-14 01:15:00,44.1,-99.9,20.00,South,184,0.0,17.0,255,0.00,,,0.00,0,Wunderground v.1.15,2013-03-14 08:15:00,
2013-03-14 01:25:00,44.1,-99.9,20.00,South,185,0.0,17.0,255,0.00,,,0.00,0,Wunderground v.1.15,2013-03-14 08:25:00,
2013-03-14 01:35:00,43.6,-99.9,20.00,SSE,152,3.0,17.0,255,0.00,,,0.00,0,Wunderground v.1.15,2013-03-14 08:35:00,
2013-03-14 01:45:00,43.6,-99.9,20.00,SE,131,3.0,17.0,255,0.00,,,0.00,0,Wunderground v.1.15,2013-03-14 08:45:00,
2013-03-14 01:55:00,43.8,-99.9,20.00,SSE,151,5.0,17.0,255,0.00,,,0.00,0,Wunderground v.1.15,2013-03-14 08:55:00,
2013-03-14 02:00:00,43.6,-99.9,20.00,South,170,4.0,17.0,255,0.00,,,0.00,0,Wunderground v.1.15,2013-03-14 09:00:00,
2013-03-14 02:10:00,43.5,-99.9,20.00,SE,146,3.0,17.0,255,0.00,,,0.00,0,Wunderground v.1.15,2013-03-14 09:10:00,
2013-03-14 02:20:00,43.4,-99.9,20.00,SE,127,3.0,17.0,255,0.00,,,0.00,0,Wunderground v.1.15,2013-03-14 09:20:00,
2013-03-14 02:30:00,43.5,-99.9,20.00,ESE,122,2.0,17.0,255,0.00,,,0.00,0,Wunderground v.1.15,2013-03-14 09:30:00,
2013-03-14 02:40:00,43.7,-99.9,20.00,ESE,122,0.0,17.0,255,0.00,,,0.00,0,Wunderground v.1.15,2013-03-14 09:40:00,
2013-03-14 02:50:00,43.7,-99.9,20.00,ESE,103,6.0,17.0,255,0.00,,,0.00,0,Wunderground v.1.15,2013-03-14 09:50:00,
2013-03-14 03:00:00,43.8,-99.9,20.00,ESE,118,6.0,17.0,255,0.00,,,0.00,0,Wunderground v.1.15,2013-03-14 10:00:00,
2013-03-14 03:10:00,43.9,-99.9,20.00,ESE,109,2.0,17.0,255,0.00,,,0.00,0,Wunderground v.1.15,2013-03-14 10:10:00,
2013-03-14 03:20:00,44.2,-99.9,20.00,South,171,3.0,17.0,255,0.00,,,0.00,0,Wunderground v.1.15,2013-03-14 10:20:00,
2013-03-14 03:25:00,44.3,-99.9,20.00,SW,227,1.0,17.0,255,0.00,,,0.00,0,Wunderground v.1.15,2013-03-14 10:25:00,
2013-03-14 03:35:00,44.2,-99.9,20.00,South,171,4.0,17.0,255,0.00,,,0.00,0,Wunderground v.1.15,2013-03-14 10:35:00,
2013-03-14 03:45:00,43.8,-99.9,20.00,ESE,117,4.0,17.0,255,0.00,,,0.00,0,Wunderground v.1.15,2013-03-14 10:45:00,
2013-03-14 03:55:00,43.4,-99.9,20.00,East,101,3.0,17.0,255,0.00,,,0.00,0,Wunderground v.1.15,2013-03-14 10:55:00,
2013-03-14 04:05:00,43.4,-99.9,20.00,East,91,5.0,17.0,255,0.00,,,0.00,0,Wunderground v.1.15,2013-03-14 11:05:00,
2013-03-14 04:15:00,43.8,-99.9,20.00,East,101,7.0,17.0,255,0.00,,,0.00,0,Wunderground v.1.15,2013-03-14 11:15:00,
2013-03-14 04:25:00,44.1,-99.9,20.00,ESE,122,9.0,17.0,255,0.00,,,0.00,0,Wunderground v.1.15,2013-03-14 11:25:00,
2013-03-14 04:30:00,44.2,-99.9,20.00,SE,126,9.0,17.0,255,0.00,,,0.00,0,Wunderground v.1.15,2013-03-14 11:30:00,
2013-03-14 04:40:00,44.1,-99.9,20.00,ESE,111,9.0,17.0,255,0.00,,,0.00,0,Wunderground v.1.15,2013-03-14 11:40:00,
2013-03-14 04:50:00,44.4,-99.9,20.00,SW,227,0.0,17.0,255,0.00,,,0.00,0,Wunderground v.1.15,2013-03-14 11:50:00,
2013-03-14 05:00:00,44.2,-99.9,20.00,ESE,121,0.0,17.0,255,0.00,,,0.00,0,Wunderground v.1.15,2013-03-14 12:00:00,
2013-03-14 05:10:00,44.2,-99.9,20.00,SE,130,3.0,17.0,255,0.00,,,0.00,0,Wunderground v.1.15,2013-03-14 12:10:00,
2013-03-14 05:15:00,44.4,-99.9,20.00,ENE,69,1.0,17.0,255,0.00,,,0.00,0,Wunderground v.1.15,2013-03-14 12:15:00,
2013-03-14 05:25:00,43.8,-99.9,20.00,NE,50,3.0,17.0,255,0.00,,,0.00,0,Wunderground v.1.15,2013-03-14 12:25:00,
2013-03-14 05:35:00,44.5,-99.9,20.00,ENE,60,0.0,17.0,255,0.00,,,0.00,0,Wunderground v.1.15,2013-03-14 12:35:00,
2013-03-14 05:45:00,44.3,-99.9,20.00,SE,127,2.0,17.0,255,0.00,,,0.00,0,Wunderground v.1.15,2013-03-14 12:45:00,
2013-03-14 05:55:00,44.6,-99.9,20.00,SE,127,0.0,17.0,255,0.00,,,0.00,0,Wunderground v.1.15,2013-03-14 12:55:00,
2013-03-14 06:05:00,44.5,-99.9,20.00,SE,127,0.0,17.0,255,0.00,,,0.00,0,Wunderground v.1.15,2013-03-14 13:05:00,
2013-03-14 06:15:00,44.4,-99.9,20.00,SE,127,0.0,17.0,255,0.00,,,0.00,0,Wunderground v.1.15,2013-03-14 13:15:00,
2013-03-14 06:20:00,44.3,-99.9,20.00,SE,127,1.0,17.0,255,0.00,,,0.00,0,Wunderground v.1.15,2013-03-14 13:20:00,
2013-03-14 06:30:00,43.9,-99.9,20.00,ESE,120,4.0,17.0,255,0.00,,,0.00,0,Wunderground v.1.15,2013-03-14 13:30:00,
2013-03-14 06:40:00,43.8,-99.9,20.00,ESE,104,2.0,17.0,255,0.00,,,0.00,0,Wunderground v.1.15,2013-03-14 13:40:00,
2013-03-14 06:45:00,43.7,-99.9,20.00,East,101,8.0,17.0,255,0.00,,,0.00,0,Wunderground v.1.15,2013-03-14 13:45:00,
2013-03-14 06:55:00,43.9,-99.9,20.00,East,94,2.0,17.0,255,0.00,,,0.00,0,Wunderground v.1.15,2013-03-14 13:55:00,
2013-03-14 07:05:00,44.1,-99.9,20.00,ESE,122,5.0,17.0,255,0.00,,,0.00,0,Wunderground v.1.15,2013-03-14 14:05:00,
2013-03-14 07:15:00,43.9,-99.9,20.00,SE,129,8.0,17.0,255,0.00,,,0.00,0,Wunderground v.1.15,2013-03-14 14:15:00,
2013-03-14 07:25:00,44.0,-99.9,20.00,SE,130,10.0,17.0,255,0.00,,,0.00,0,Wunderground v.1.15,2013-03-14 14:25:00,
2013-03-14 07:35:00,43.9,-99.9,20.00,ESE,123,7.0,17.0,255,0.00,,,0.00,0,Wunderground v.1.15,2013-03-14 14:35:00,
2013-03-14 07:45:00,44.0,-99.9,20.00,ESE,114,9.0,17.0,255,0.00,,,0.00,0,Wunderground v.1.15,2013-03-14 14:45:00,
2013-03-14 07:50:00,43.9,-99.9,20.00,ESE,116,7.0,17.0,255,0.00,,,0.00,0,Wunderground v.1.15,2013-03-14 14:50:00,
2013-03-14 08:00:00,44.0,-99.9,20.00,ESE,115,10.0,17.0,255,0.00,,,0.00,0,Wunderground v.1.15,2013-03-14 15:00:00,
2013-03-14 08:10:00,44.1,-99.9,20.00,ESE,107,10.0,17.0,255,0.00,,,0.00,0,Wunderground v.1.15,2013-03-14 15:10:00,
2013-03-14 08:20:00,44.3,-99.9,20.00,ESE,109,10.0,17.0,255,0.00,,,0.00,0,Wunderground v.1.15,2013-03-14 15:20:00,
2013-03-14 08:30:00,44.3,-99.9,20.00,ESE,107,14.0,17.0,255,0.00,,,0.00,0,Wunderground v.1.15,2013-03-14 15:30:00,
2013-03-14 08:40:00,44.5,-99.9,20.00,ESE,115,9.0,17.0,255,0.00,,,0.00,0,Wunderground v.1.15,2013-03-14 15:40:00,
2013-03-14 08:50:00,44.5,-99.9,20.00,ESE,118,7.0,17.0,255,0.00,,,0.00,0,Wunderground v.1.15,2013-03-14 15:50:00,
2013-03-14 09:00:00,44.7,-99.9,20.00,ESE,123,9.0,17.0,255,0.00,,,0.00,0,Wunderground v.1.15,2013-03-14 16:00:00,
2013-03-14 09:10:00,44.9,-99.9,20.00,ESE,106,8.0,17.0,255,0.00,,,0.00,0,Wunderground v.1.15,2013-03-14 16:10:00,
2013-03-14 09:15:00,45.1,-99.9,20.00,SE,125,11.0,17.0,255,0.00,,,0.00,0,Wunderground v.1.15,2013-03-14 16:15:00,
2013-03-14 09:25:00,45.4,-99.9,20.00,SE,136,12.0,17.0,255,0.00,,,0.00,0,Wunderground v.1.15,2013-03-14 16:25:00,
2013-03-14 09:35:00,45.6,-99.9,20.00,SE,129,9.0,17.0,255,0.00,,,0.00,0,Wunderground v.1.15,2013-03-14 16:35:00,
2013-03-14 09:45:00,45.5,-99.9,20.00,SE,132,11.0,17.0,255,0.00,,,0.00,0,Wunderground v.1.15,2013-03-14 16:45:00,
2013-03-14 09:55:00,45.3,-99.9,20.00,ESE,121,10.0,17.0,255,0.00,,,0.00,0,Wunderground v.1.15,2013-03-14 16:55:00,
2013-03-14 10:05:00,45.5,-99.9,20.00,ESE,113,12.0,17.0,255,0.00,,,0.00,0,Wunderground v.1.15,2013-03-14 17:05:00,
2013-03-14 10:15:00,45.6,-99.9,20.00,SE,128,13.0,17.0,255,0.00,,,0.00,0,Wunderground v.1.15,2013-03-14 17:15:00,
2013-03-14 10:20:00,45.6,-99.9,20.00,SE,124,7.0,17.0,255,0.00,,,0.00,0,Wunderground v.1.15,2013-03-14 17:20:00,
2013-03-14 10:30:00,45.9,-99.9,20.00,ESE,114,7.0,17.0,255,0.00,,,0.00,0,Wunderground v.1.15,2013-03-14 17:30:00,
2013-03-14 10:40:00,46.3,-99.9,20.00,SE,127,9.0,17.0,255,0.00,,,0.00,0,Wunderground v.1.15,2013-03-14 17:40:00,
2013-03-14 10:50:00,46.4,-99.9,20.00,ESE,122,9.0,17.0,255,0.00,,,0.00,0,Wunderground v.1.15,2013-03-14 17:50:00,
2013-03-14 11:00:00,47.2,-99.9,20.00,SE,130,6.0,17.0,255,0.00,,,0.00,0,Wunderground v.1.15,2013-03-14 18:00:00,
2013-03-14 11:10:00,46.8,-99.9,20.00,ESE,111,5.0,17.0,255,0.00,,,0.00,0,Wunderground v.1.15,2013-03-14 18:10:00,
2013-03-14 11:20:00,47.0,-99.9,20.00,SE,137,8.0,17.0,255,0.00,,,0.00,0,Wunderground v.1.15,2013-03-14 18:20:00,
2013-03-14 11:30:00,46.7,-99.9,20.00,ESE,120,8.0,17.0,255,0.00,,,0.00,0,Wunderground v.1.15,2013-03-14 18:30:00,
2013-03-14 11:40:00,46.7,-99.9,20.00,SE,125,7.0,17.0,255,0.00,,,0.00,0,Wunderground v.1.15,2013-03-14 18:40:00,
2013-03-14 11:45:00,46.4,-99.9,20.00,ESE,118,10.0,17.0,255,0.00,,,0.00,0,Wunderground v.1.15,2013-03-14 18:45:00,
2013-03-14 11:55:00,47.1,-99.9,20.00,ESE,123,5.0,17.0,255,0.00,,,0.00,0,Wunderground v.1.15,2013-03-14 18:55:00,
2013-03-14 12:05:00,46.5,-99.9,20.00,ESE,112,6.0,17.0,255,0.00,,,0.00,0,Wunderground v.1.15,2013-03-14 19:05:00,
2013-03-14 12:15:00,46.3,-99.9,20.00,SE,137,11.0,17.0,255,0.00,,,0.00,0,Wunderground v.1.15,2013-03-14 19:15:00,
2013-03-14 12:20:00,46.3,-99.9,20.00,SE,138,7.0,17.0,255,0.00,,,0.00,0,Wunderground v.1.15,2013-03-14 19:20:00,
2013-03-14 12:30:00,46.2,-99.9,20.00,SE,144,11.0,17.0,255,0.00,,,0.00,0,Wunderground v.1.15,2013-03-14 19:30:00,
2013-03-14 12:40:00,46.1,-99.9,20.00,SE,130,6.0,17.0,255,0.00,,,0.00,0,Wunderground v.1.15,2013-03-14 19:40:00,
2013-03-14 12:50:00,46.7,-99.9,20.00,SE,143,6.0,17.0,255,0.00,,,0.00,0,Wunderground v.1.15,2013-03-14 19:50:00,
2013-03-14 13:05:00,46.1,-99.9,20.00,SE,137,5.0,5.0,255,0.00,,,0.00,0,Wunderground v.1.15,2013-03-14 20:05:00,
2013-03-14 13:15:00,46.1,-99.9,20.00,SE,124,8.0,8.0,255,0.00,,,0.00,0,Wunderground v.1.15,2013-03-14 20:15:00,
2013-03-14 13:20:00,46.3,-99.9,20.00,SE,145,7.0,8.0,255,0.00,,,0.00,0,Wunderground v.1.15,2013-03-14 20:20:00,
2013-03-14 13:30:00,46.3,-99.9,20.00,ESE,120,6.0,8.0,255,0.00,,,0.00,0,Wunderground v.1.15,2013-03-14 20:30:00,
2013-03-14 13:40:00,46.2,-99.9,20.00,ESE,111,5.0,14.0,255,0.00,,,0.00,0,Wunderground v.1.15,2013-03-14 20:40:00,
2013-03-14 13:50:00,46.6,-99.9,20.00,SE,141,0.0,14.0,255,0.00,,,0.00,0,Wunderground v.1.15,2013-03-14 20:50:00,
2013-03-14 14:00:00,46.1,-99.9,20.00,SE,132,9.0,9.0,255,0.00,,,0.00,0,Wunderground v.1.15,2013-03-14 21:00:00,
2013-03-14 14:10:00,46.2,-99.9,20.00,ESE,119,8.0,8.0,255,0.00,,,0.00,0,Wunderground v.1.15,2013-03-14 21:10:00,
2013-03-14 14:15:00,46.7,-99.9,20.00,SE,136,7.0,8.0,255,0.00,,,0.00,0,Wunderground v.1.15,2013-03-14 21:15:00,
2013-03-14 14:20:00,46.7,-99.9,20.00,SE,128,2.0,2.0,255,0.00,,,0.00,0,Wunderground v.1.15,2013-03-14 21:20:00,
2013-03-14 14:30:00,46.8,-99.9,20.00,SE,135,5.0,5.0,255,0.00,,,0.00,0,Wunderground v.1.15,2013-03-14 21:30:00,
2013-03-14 14:35:00,46.8,-99.9,20.00,SE,132,3.0,5.0,255,0.00,,,0.00,0,Wunderground v.1.15,2013-03-14 21:35:00,
2013-03-14 14:45:00,46.7,-99.9,20.00,SSE,148,5.0,5.0,255,0.00,,,0.00,0,Wunderground v.1.15,2013-03-14 21:45:00,
2013-03-14 14:55:00,47.1,-99.9,20.00,SE,136,6.0,6.0,255,0.00,,,0.00,0,Wunderground v.1.15,2013-03-14 21:55:00,
2013-03-14 15:00:00,46.9,-99.9,20.00,SE,140,4.0,4.0,255,0.00,,,0.00,0,Wunderground v.1.15,2013-03-14 22:00:00,
2013-03-14 15:10:00,47.1,-99.9,20.00,SE,144,8.0,8.0,255,0.00,,,0.00,0,Wunderground v.1.15,2013-03-14 22:10:00,
2013-03-14 15:20:00,46.9,-99.9,20.00,SE,142,6.0,6.0,255,0.00,,,0.00,0,Wunderground v.1.15,2013-03-14 22:20:00,
2013-03-14 15:25:00,46.7,-99.9,20.00,South,178,6.0,6.0,255,0.00,,,0.00,0,Wunderground v.1.15,2013-03-14 22:25:00,
2013-03-14 15:35:00,46.3,-99.9,20.00,SSE,149,6.0,9.0,255,0.00,,,0.00,0,Wunderground v.1.15,2013-03-14 22:35:00,
2013-03-14 15:45:00,46.6,-99.9,20.00,SSE,156,6.0,6.0,255,0.00,,,0.00,0,Wunderground v.1.15,2013-03-14 22:45:00,
2013-03-14 15:55:00,46.4,-99.9,20.00,SE,133,9.0,10.0,255,0.00,,,0.00,0,Wunderground v.1.15,2013-03-14 22:55:00,
2013-03-14 16:00:00,46.7,-99.9,20.00,SSE,148,8.0,8.0,255,0.00,,,0.00,0,Wunderground v.1.15,2013-03-14 23:00:00,
2013-03-14 16:10:00,45.9,-99.9,20.00,SE,135,10.0,10.0,255,0.00,,,0.00,0,Wunderground v.1.15,2013-03-14 23:10:00,
2013-03-14 16:20:00,45.7,-99.9,20.00,SE,127,12.0,12.0,255,0.00,,,0.00,0,Wunderground v.1.15,2013-03-14 23:20:00,
2013-03-14 16:30:00,46.2,-99.9,20.00,SE,128,13.0,13.0,255,0.00,,,0.00,0,Wunderground v.1.15,2013-03-14 23:30:00,
2013-03-14 16:40:00,46.1,-99.9,20.00,SE,132,15.0,15.0,255,0.00,,,0.00,0,Wunderground v.1.15,2013-03-14 23:40:00,
2013-03-14 16:50:00,45.8,-99.9,20.00,SE,143,12.0,12.0,255,0.00,,,0.00,0,Wunderground v.1.15,2013-03-14 23:50:00,
2013-03-14 17:00:00,45.6,-99.9,20.00,SE,129,8.0,8.0,255,0.00,,,0.00,0,Wunderground v.1.15,2013-03-15 00:00:00,
2013-03-14 17:10:00,45.6,-99.9,20.00,SE,127,15.0,15.0,255,0.00,,,0.00,0,Wunderground v.1.15,2013-03-15 00:10:00,
2013-03-14 17:20:00,45.6,-99.9,20.00,SE,127,14.0,14.0,255,0.00,,,0.00,0,Wunderground v.1.15,2013-03-15 00:20:00,
2013-03-14 17:25:00,45.5,-99.9,20.00,SE,136,9.0,14.0,255,0.00,,,0.00,0,Wunderground v.1.15,2013-03-15 00:25:00,
2013-03-14 17:35:00,45.3,-99.9,20.00,SE,137,10.0,10.0,255,0.00,,,0.00,0,Wunderground v.1.15,2013-03-15 00:35:00,
2013-03-14 17:45:00,45.2,-99.9,20.00,SE,127,12.0,12.0,255,0.00,,,0.00,0,Wunderground v.1.15,2013-03-15 00:45:00,
2013-03-14 17:55:00,45.0,-99.9,20.00,SE,125,10.0,10.0,255,0.00,,,0.00,0,Wunderground v.1.15,2013-03-15 00:55:00,
2013-03-14 18:00:00,44.9,-99.9,20.00,SE,124,13.0,13.0,255,0.00,,,0.00,0,Wunderground v.1.15,2013-03-15 01:00:00,
2013-03-14 18:10:00,44.9,-99.9,20.00,SE,130,12.0,12.0,255,0.00,,,0.00,0,Wunderground v.1.15,2013-03-15 01:10:00,
2013-03-14 18:20:00,44.9,-99.9,20.00,SE,128,13.0,13.0,255,0.00,,,0.00,0,Wunderground v.1.15,2013-03-15 01:20:00,
2013-03-14 18:30:00,44.7,-99.9,20.00,ESE,123,11.0,11.0,255,0.00,,,0.00,0,Wunderground v.1.15,2013-03-15 01:30:00,
2013-03-14 18:40:00,44.5,-99.9,20.00,SE,131,6.0,20.0,255,0.00,,,0.00,0,Wunderground v.1.15,2013-03-15 01:40:00,
2013-03-14 18:50:00,44.2,-99.9,20.00,SE,134,10.0,20.0,255,0.00,,,0.00,0,Wunderground v.1.15,2013-03-15 01:50:00,
2013-03-14 19:00:00,44.0,-99.9,20.00,SE,133,10.0,10.0,255,0.00,,,0.00,0,Wunderground v.1.15,2013-03-15 02:00:00,
2013-03-14 19:10:00,43.5,-99.9,20.00,SE,140,14.0,14.0,255,0.00,,,0.00,0,Wunderground v.1.15,2013-03-15 02:10:00,
2013-03-14 19:20:00,43.7,-99.9,20.00,SE,138,8.0,8.0,255,0.00,,,0.00,0,Wunderground v.1.15,2013-03-15 02:20:00,
2013-03-14 19:30:00,43.4,-99.9,20.00,SE,138,15.0,15.0,255,0.00,,,0.00,0,Wunderground v.1.15,2013-03-15 02:30:00,
2013-03-14 19:40:00,43.3,-99.9,20.00,SE,132,8.0,18.0,255,0.00,,,0.00,0,Wunderground v.1.15,2013-03-15 02:40:00,
2013-03-14 19:50:00,43.3,-99.9,20.00,SE,124,15.0,18.0,255,0.00,,,0.00,0,Wunderground v.1.15,2013-03-15 02:50:00,
2013-03-14 20:00:00,43.1,-99.9,20.00,ESE,119,9.0,9.0,255,0.00,,,0.00,0,Wunderground v.1.15,2013-03-15 03:00:00,
2013-03-14 20:10:00,43.0,-99.9,20.00,SE,124,9.0,9.0,255,0.00,,,0.00,0,Wunderground v.1.15,2013-03-15 03:10:00,
2013-03-14 20:20:00,42.9,-99.9,20.00,ESE,121,13.0,13.0,255,0.00,,,0.00,0,Wunderground v.1.15,2013-03-15 03:20:00,
2013-03-14 20:25:00,43.0,-99.9,20.00,ESE,123,8.0,13.0,255,0.00,,,0.00,0,Wunderground v.1.15,2013-03-15 03:25:00,
2013-03-14 20:35:00,43.0,-99.9,20.00,SE,129,12.0,12.0,255,0.00,,,0.00,0,Wunderground v.1.15,2013-03-15 03:35:00,
2013-03-14 20:45:00,43.3,-99.9,20.00,SE,129,13.0,17.0,255,0.00,,,0.00,0,Wunderground v.1.15,2013-03-15 03:45:00,
2013-03-14 20:55:00,43.5,-99.9,20.00,SE,130,12.0,12.0,255,0.00,,,0.00,0,Wunderground v.1.15,2013-03-15 03:55:00,
2013-03-14 21:00:00,43.4,-99.9,20.00,SE,129,8.0,8.0,255,0.00,,,0.00,0,Wunderground v.1.15,2013-03-15 04:00:00,
2013-03-14 21:05:00,43.4,-99.9,20.00,SE,131,10.0,10.0,255,0.00,,,0.00,0,Wunderground v.1.15,2013-03-15 04:05:00,
2013-03-14 21:15:00,43.3,-99.9,20.00,SE,125,8.0,8.0,255,0.00,,,0.00,0,Wunderground v.1.15,2013-03-15 04:15:00,
2013-03-14 21:20:00,43.4,-99.9,20.00,SE,126,8.0,8.0,255,0.00,,,0.00,0,Wunderground v.1.15,2013-03-15 04:20:00,
2013-03-14 21:30:00,43.2,-99.9,20.00,SE,134,8.0,8.0,255,0.00,,,0.00,0,Wunderground v.1.15,2013-03-15 04:30:00,
2013-03-14 21:40:00,43.0,-99.9,20.00,ESE,115,19.0,19.0,255,0.00,,,0.00,0,Wunderground v.1.15,2013-03-15 04:40:00,
2013-03-14 21:45:00,42.8,-99.9,20.00,SE,124,16.0,19.0,255,0.00,,,0.00,0,Wunderground v.1.15,2013-03-15 04:45:00,
2013-03-14 21:55:00,42.6,-99.9,20.00,ESE,111,11.0,19.0,255,0.00,,,0.00,0,Wunderground v.1.15,2013-03-15 04:55:00,
2013-03-14 22:00:00,42.4,-99.9,20.00,ESE,122,11.0,11.0,255,0.00,,,0.00,0,Wunderground v.1.15,2013-03-15 05:00:00,
2013-03-14 22:05:00,42.2,-99.9,20.00,ESE,118,15.0,15.0,255,0.00,,,0.00,0,Wunderground v.1.15,2013-03-15 05:05:00,
2013-03-14 22:15:00,42.2,-99.9,20.00,SE,129,11.0,14.0,255,0.00,,,0.00,0,Wunderground v.1.15,2013-03-15 05:15:00,
2013-03-14 22:20:00,42.3,-99.9,20.00,SE,135,9.0,9.0,255,0.00,,,0.00,0,Wunderground v.1.15,2013-03-15 05:20:00,
2013-03-14 22:30:00,42.2,-99.9,20.00,SE,125,11.0,11.0,255,0.00,,,0.00,0,Wunderground v.1.15,2013-03-15 05:30:00,
2013-03-14 22:40:00,42.3,-99.9,20.00,ESE,118,1.0,20.0,255,0.00,,,0.00,0,Wunderground v.1.15,2013-03-15 05:40:00,
2013-03-14 22:45:00,42.2,-99.9,20.00,ESE,104,10.0,20.0,255,0.00,,,0.00,0,Wunderground v.1.15,2013-03-15 05:45:00,
2013-03-14 22:55:00,42.3,-99.9,20.00,SE,127,11.0,20.0,255,0.00,,,0.00,0,Wunderground v.1.15,2013-03-15 05:55:00,
2013-03-14 23:00:00,42.4,-99.9,20.00,SE,127,10.0,10.0,255,0.00,,,0.00,0,Wunderground v.1.15,2013-03-15 06:00:00,
2013-03-14 23:10:00,42.4,-99.9,20.00,ESE,121,11.0,11.0,255,0.00,,,0.00,0,Wunderground v.1.15,2013-03-15 06:10:00,
2013-03-14 23:15:00,42.4,-99.9,20.00,ESE,122,13.0,13.0,255,0.00,,,0.00,0,Wunderground v.1.15,2013-03-15 06:15:00,
2013-03-14 23:25:00,42.5,-99.9,20.00,SE,132,13.0,13.0,255,0.00,,,0.00,0,Wunderground v.1.15,2013-03-15 06:25:00,
2013-03-14 23:35:00,42.5,-99.9,20.00,SE,131,13.0,13.0,255,0.00,,,0.00,0,Wunderground v.1.15,2013-03-15 06:35:00,
2013-03-14 23:45:00,42.6,-99.9,20.00,SE,128,7.0,22.0,255,0.00,,,0.00,0,Wunderground v.1.15,2013-03-15 06:45:00,
2013-03-14 23:55:00,42.7,-99.9,20.00,ESE,103,8.0,22.0,255,0.00,,,0.00,0,Wunderground v.1.15,2013-03-15 06:55:00,